Location: Sandbach
(53.1410°N, 2.3660°W)
Time: 05:17:14
(UTC+01:00)

Envisat - Visible Passes

Search period start: 06 October 2022 00:00
Search period end: 16 October 2022 00:00
Orbit: 764 x 765 km, 98.2° (Epoch: 05 October)

Date Brightness Start Highest point End Pass type
(mag) Time Alt. Az. Time Alt. Az. Time Alt. Az.
06 Oct 4.8 04:46:42 10° NNE 04:51:10 30° E 04:55:36 10° SSE visible
06 Oct 3.2 06:25:30 10° N 06:30:25 50° WNW 06:35:18 10° SW visible
07 Oct 5.7 04:10:42 10° NE 04:13:45 16° E 04:16:49 10° ESE visible
07 Oct 3.0 05:48:25 10° NNE 05:53:32 88° ESE 05:58:37 10° SSW visible
08 Oct 4.0 05:11:32 10° NNE 05:16:28 46° E 05:21:20 10° S visible
09 Oct 5.1 04:35:02 10° NE 04:39:12 25° E 04:43:19 10° SE visible
09 Oct 3.0 06:13:34 10° N 06:18:35 60° WNW 06:23:35 10° SSW visible
10 Oct 5.9 03:59:28 10° ENE 04:01:43 13° E 04:03:55 10° ESE visible
10 Oct 3.2 05:36:32 10° NNE 05:41:39 73° ESE 05:46:43 10° S visible
11 Oct 4.4 04:59:46 10° NNE 05:04:31 38° E 05:09:14 10° SSE visible
11 Oct 3.5 06:38:50 10° N 06:43:34 40° WNW 06:48:15 10° SW visible
12 Oct 5.4 04:23:26 10° NE 04:27:11 20° E 04:30:54 10° SE visible
12 Oct 2.9 06:01:39 10° NNE 06:06:45 73° WNW 06:11:48 10° SSW visible
13 Oct 6.1 03:49:30 10° E 03:49:38 10° E 03:49:46 10° E visible
13 Oct 3.5 05:24:41 10° NNE 05:29:44 60° ESE 05:34:45 10° S visible
14 Oct 4.7 04:48:01 10° NNE 04:52:32 31° E 04:57:02 10° SSE visible
14 Oct 3.2 06:26:52 10° N 06:31:45 48° WNW 06:36:36 10° SW visible
15 Oct 5.7 04:11:56 10° NE 04:15:09 16° E 04:18:19 10° SE visible
15 Oct 3.0 05:49:45 10° NNE 05:54:52 89° WNW 05:59:58 10° SSW visible
